Regional Weather Roundup
Issued by NWS

Home | Current Version | Previous Version | Graphics & Text | Print | Product List | Glossary On
Versions: 1 2 3 4 5 6 7 8 9 10 11 12 13 14 15 16 17 18 19 20 21 22 23 24 25 26 27
000
ASUS45 KBOI 211810
RWRID

IDAHO REGIONAL WEATHER ROUNDUP
NATIONAL WEATHER SERVICE BOISE ID
1100 AM MST TUE NOV 21 2017

NOTE: "FAIR" INDICATES FEW OR NO CLOUDS BELOW 12000 FEET
WITH NO SIGNIFICANT WEATHER AND/OR OBSTRUCTIONS TO VISIBILITY

IDZ012-014-211900-
SOUTHWEST IDAHO


CITY           SKY/WX    TMP DP  RH WIND       PRES   REMARKS
BOISE          CLOUDY    53  46  77 SE10      30.27F
CALDWELL       PTSUNNY   48  45  89 E5        30.27S
MOUNTAIN HOME  PTSUNNY   49  49 100 E10       30.28R
$$

IDZ016-017-211900-
SOUTHCENTRAL IDAHO


CITY           SKY/WX    TMP DP  RH WIND       PRES   REMARKS
BURLEY         SUNNY     57  46  66 SW10      30.31R
JEROME         SUNNY     55  47  74 SW5       30.31R
TWIN FALLS     SUNNY     59  47  64 SW10      30.31R
$$

IDZ019>023-211900-
SOUTHEAST IDAHO


CITY           SKY/WX    TMP DP  RH WIND       PRES   REMARKS
IDAHO FALLS    CLOUDY    37  36  96 N5        30.36R FOG     WCI  33
POCATELLO      CLOUDY    43  38  82 CALM      30.35R
REXBURG        CLOUDY    38  36  92 CALM      30.33R
$$

IDZ006-010-011-018-031-032-211900-
CENTRAL IDAHO MOUNTAINS


CITY           SKY/WX    TMP DP  RH WIND       PRES   REMARKS
MCCALL         CLOUDY    36  36 100 CALM      30.26S FOG
HAILEY         MOSUNNY   39  36  87 W5        30.35R
STANLEY          N/A     40  38  93 E5        30.32S
SALMON         CLOUDY    36  35  96 CALM      30.34S
CHALLIS        MOSUNNY   36  33  89 CALM      30.31R
$$

IDZ002-004-006-007-026-211900-
NORTHERN IDAHO


CITY           SKY/WX    TMP DP  RH WIND       PRES   REMARKS
LEWISTON       LGT RAIN  42  40  92 E5        30.19S
LOWELL           N/A     42  39  89 N3        30.29F
COEUR D`ALENE  CLOUDY    37  37 100 NE10      30.19F WCI  30
MULLAN PASS    PTSUNNY   30  27  88 S8        30.15S WCI  22
$$




USA.gov is the U.S. government's official web portal to all federal, state and local government web resources and services.